sat.trackr.live / text

‹ back to catalog

EOS-08

NORAD 60454 · 2024-147A

PAYLOAD ACTIVE UNKNOWN

§ Identity

Operator
Country
IND
Launch date
2024-08-16
Launch site
SRILR
Launch vehicle
Mass (kg)
RCS (m²)

External: N2YO · Heavens-Above · Gunter

§ Orbital elements

Epoch: 2026-05-25T04:53:57.830784Z

Period
93.05 min
Inclination
37.3800°
Eccentricity
0.0001455
Mean motion
15.47620084 rev/d
Perigee alt
422.7 km
Apogee alt
424.7 km
Semi-major
6,801.8 km
B*
4.7852e-4
RAAN
203.1134°
Arg perigee
108.5423°
Mean anomaly
251.5499°
Rev number
9,951

§ Raw data

EOS-081 60454U 24147A   26145.20414156  .00025332  00000+0  47852-3 0  99912 60454  37.3800 203.1134 0001455 108.5423 251.5499 15.47620084 99510

JSON: /api/v1/satellites/60454 · /tle

For live sub-satellite position, see the globe view (requires WebGL).

§ Visibility from observer

Set your observer location to see the next 7 days of passes ≥ 10°. The values pass through the URL so the page stays shareable.

No JS? Fill the form by hand. The geolocation button needs JavaScript.